Find Tongxin Jishu Shiyan 11

NORAD ID: 59020 Int'l Des: 2024-037 Owner: ZZB/CAST Country: CN operational
HEOCIRCULARGSO

当前视图

正在加载3D地球...

关于 Tongxin Jishu Shiyan 11

正在加载描述...

即将过境

Passes for default location (London). Set your location on the main map for personalized predictions.

高度历史

Loading altitude history...

两行轨道根数

1 59020U 24037A 26158.00285299 -.00000336 00000-0 00000+0 0 9991
2 59020 4.2115 326.9269 0004029 138.7803 263.3706 1.00069046 8486
Epoch: Jun 7, 2026 • Age: 33 hours

当前状态

高度 35830.5 km
速度 3.07 km/s
星下点 -0.02°S, 111.64°E
发射日期 Feb 23, 2024
运行时间 2.2 years
类型 other

技术详情

分类 Payload
质量 10000.00 kg
干质量 6000.00 kg
总质量 10000.00 kg
长度 7.00 m
直径 4.00 m
跨度 30.00 m
形状 Box+ 2 pan+dish
制造商 CAST
平台类型 TJS11
阶段状态 In Orbit
所有者/国家 ZZB/CAST/CN

Most Searched